Location: Unspecified
(54.1780°N, 0.0000°E)
Time: 05:40:50
(UTC+00:00)

Explorer 7 - Pass Details

Date: 20 June 2019
Orbit: 485 x 680 km, 50.3° (Epoch: 13 October)

Event Time Altitude Azimuth Distance (km) Brightness Sun altitude
Rises 13:28:20 0° 272° (W) 2,929 10.8 55.2°
Reaches altitude 10° 13:30:41 10° 266° (W) 2,047 10.2 55.0°
Maximum altitude 13:35:13 47° 194° (SSW) 887 9.7 54.6°
Drops below altitude 10° 13:39:54 10° 121° (ESE) 2,111 9.9 54.2°
Sets 13:42:21 0° 116° (ESE) 3,032 10.5 53.9°
